Weather Roundup
Issued by NWS Chicago, IL

Home | Current Version | Previous Version | Graphics & Text | Print | Product List | Glossary On
Versions: 1 2 3 4 5 6 7 8 9 10 11 12 13 14 15 16 17 18 19 20 21 22 23 24 25 26 27 28 29 30 31 32 33 34 35 36 37 38 39 40 41 42 43 44 45 46 47 48 49 50
000
NZUS59 KLOT 201310
HRRLOT

CHICAGO AREA WEATHER ROUNDUP
NATIONAL WEATHER SERVICE CHICAGO/ROMEOVILLE IL
800 AM CDT MON OCT 20 2014

NOTE: "FAIR" INDICATES FEW OR NO CLOUDS BELOW 12,000 FEET WITH NO
SIGNIFICANT WEATHER AND/OR OBSTRUCTIONS TO VISIBILITY.

* THESE STATIONS ARE NOT UNDER NWS QUALITY CONTROL. THEY ALSO MAY NOT
  REPORT WEATHER SUCH AS PRECIPITATION OR FOG.

ILZ005-006-012>014-019>023-201400-
NORTHEAST ILLINOIS

CITY           SKY/WX    TMP DP  RH WIND       PRES   REMARKS
OHARE          PTCLDY    47  43  86 W6        29.81R
MIDWAY         PTCLDY    51  46  83 W6        29.82R
AURORA         CLEAR     44  41  89 W6        29.84R
LANSING*       PTCLDY    49  45  85 W9        29.83R
JOLIET*        CLEAR     48  44  87 W6        29.84R
WAUKEGAN       CLEAR     48  43  82 NW5       29.80R
DUPAGE AIRPORT CLEAR     45  42  89 CALM      29.82R
WHEELING       CLEAR     48  44  86 W3        29.82R
KANKAKEE*      PTCLDY    50  46  88 SW9       29.85R
MORRIS*        CLEAR     47  46  96 W7        29.83R
LEWIS AIRPORT* CLEAR     47  46  93 W9        29.83R
NORTHERLY IS     N/A     51  45  79 W10         N/A
$$

WIZ051-052-058>065-066-070>072-201400-
SOUTHEAST WISCONSIN

CITY           SKY/WX    TMP DP  RH WIND       PRES   REMARKS
MILWAUKEE      PTCLDY    49  43  80 NW7       29.79R
KENOSHA*       MOCLDY    47  44  90 W7        29.80R
RACINE*        MOCLDY    48  42  80 W8        29.81R
BURLINGTON     CLEAR     45  42  90 W6        29.81R
WAUKESHA       CLEAR     45  43  93 W12       29.81R
WEST BEND      CLEAR     46  41  81 W7        29.81R
$$

INZ001>003-010>013-019-020-201400-
NORTHWEST INDIANA

CITY           SKY/WX    TMP DP  RH WIND       PRES   REMARKS
GARY*          PTCLDY    50  45  81 SW6       29.85R
MICHIGAN CITY* NOT AVBL
RENSSELAER*    NOT AVBL
VALPARAISO     MOCLDY    48  44  86 SW6       29.84R
$$

LMZ740>746-201400-
SOUTHERN LAKE MICHIGAN

STATION/POSITION TIME  SKY/WX   TEMP WIND        PRES    VSBY
                                AIR  DIR/SP/G
                 (UTC)          (F)  (DEG/KT/KT) (MB)    (MI)
HARRISON CRIB    1300            51  250/ 12/ 14   N/A
BURNHAM HARBOR   1300            51  260/  8/ 10   N/A
CALUMET HARBOR   1300            49  230/  4/  7 1008.8R
BURNS HARBOR     NOT AVBL
MICHIGAN CITY    1300            49  170/ 10/ 12   N/A
$$

ABBREVIATIONS USED IN REMARKS
   TC - TEMPERATURE IN CELSIUS
  WCI - WIND CHILL INDEX
   HX - HEAT INDEX
  VSB - VISIBILITY
$$


USA.gov is the U.S. government's official web portal to all federal, state and local government web resources and services.